This is the latest recevied weather packets stored in our database for station/object GJ7DNI-13. If no packets are shown the sender has not sent any weather packets the latest 10 day(s).
| Time | Temp. | Humidity | Pressure | Rain* | Wind** | Luminosity | Snow |
|---|---|---|---|---|---|---|---|
| 1777651206 | 17.78° C | 64% | 1019 hPa | 0 mm | - | 469 W/m² | - |
| 1777650906 | 17.78° C | 63% | 1019.1 hPa | 0 mm | - | 483 W/m² | - |
| 1777650606 | 17.78° C | 63% | 1019 hPa | 0 mm | - | 499 W/m² | - |
| 1777650306 | 17.78° C | 64% | 1019.1 hPa | 0 mm | - | 513 W/m² | - |
| 1777650006 | 18.33° C | 63% | 1019.1 hPa | 0 mm | - | 524 W/m² | - |
| 1777649706 | 18.33° C | 64% | 1019.2 hPa | 0 mm | - | 536 W/m² | - |
| 1777649406 | 17.78° C | 63% | 1019.2 hPa | 0 mm | - | 547 W/m² | - |
| 1777649106 | 17.78° C | 64% | 1019.2 hPa | 0 mm | - | 557 W/m² | - |
| 1777648806 | 18.33° C | 63% | 1019.3 hPa | 0 mm | - | 566 W/m² | - |
| 1777648506 | 18.89° C | 62% | 1019.3 hPa | 0 mm | - | 577 W/m² | - |
| 1777648206 | 18.89° C | 61% | 1019.3 hPa | 0 mm | - | 585 W/m² | - |
| 1777647906 | 18.89° C | 62% | 1019.4 hPa | 0 mm | - | 598 W/m² | - |
| 1777647606 | 18.33° C | 63% | 1019.5 hPa | 0 mm | - | 605 W/m² | - |
| 1777647306 | 18.89° C | 61% | 1019.5 hPa | 0 mm | - | 617 W/m² | - |
| 1777647006 | 20° C | 60% | 1019.6 hPa | 0 mm | - | 624 W/m² | - |
| 1777646706 | 18.89° C | 61% | 1019.6 hPa | 0 mm | - | 636 W/m² | - |
| 1777646406 | 19.44° C | 60% | 1019.6 hPa | 0 mm | - | 642 W/m² | - |
| 1777646106 | 19.44° C | 61% | 1019.7 hPa | 0 mm | - | 642 W/m² | - |
| 1777645806 | 19.44° C | 62% | 1019.7 hPa | 0 mm | - | 650 W/m² | - |
| 1777645506 | 18.89° C | 62% | 1019.8 hPa | 0 mm | - | 668 W/m² | - |
| 1777645206 | 20° C | 60% | 1019.8 hPa | 0 mm | - | 671 W/m² | - |
| 1777644906 | 19.44° C | 61% | 1019.8 hPa | 0 mm | - | 680 W/m² | - |
| 1777644606 | 18.89° C | 63% | 1019.8 hPa | 0 mm | - | 679 W/m² | - |
| 1777644306 | 18.89° C | 61% | 1019.9 hPa | 0 mm | - | 705 W/m² | - |
| 1777644006 | 18.89° C | 61% | 1019.9 hPa | 0 mm | - | 703 W/m² | - |
* Rain latest hour (hover to see other rain measurements)
** Current wind speed in m/s (hover to see current wind gust speed)